Wind_Speed
18 18 17 16 15 14 14 14 13 12 11 10 9 8 8 7 6 5 4 4 5 6 7 9 12 14 16 19 20 22 24 26 29 31 33 35 36 37 37 37 37 38 38 39 40 42 43 43 43 42 42 42 42 41 41 41 40 37 35 33 31 30 30 29 28 26 25 27 30 33 34 34 35 35 35 34 35 35 34 34 34 34 35 34 34
19 19 18 17 16 14 14 14 13 13 12 11 9 8 8 8 6 5 4 5 5 6 8 10 13 15 18 20 21 23 25 27 30 32 33 35 37 39 38 38 38 39 39 40 42 43 44 43 42 42 41 41 39 38 38 37 34 31 30 30 30 28 27 27 27 25 23 23 26 29 31 33 34 35 35 35 35 35 35 34 35 35 35 34 34
20 20 19 18 16 15 14 14 14 13 12 11 10 9 9 8 7 6 6 6 6 7 9 12 14 16 19 21 22 24 26 28 30 32 34 36 39 40 40 39 40 40 41 42 43 44 43 42 41 40 39 38 37 36 34 32 30 29 29 30 30 29 27 26 26 24 22 21 22 24 27 30 32 33 33 34 35 35 35 34 33 33 33 32 32
20 19 19 18 17 15 15 14 14 14 13 12 11 10 10 9 9 8 7 7 7 9 11 13 15 18 20 22 23 25 27 29 31 33 35 38 40 41 41 40 41 41 42 44 44 43 41 40 39 38 37 36 34 33 31 29 28 29 30 30 30 30 29 27 26 25 23 21 21 21 23 25 27 29 30 31 31 32 31 31 30 30 30 30 30
20 19 19 18 17 16 16 15 16 15 14 13 12 11 11 10 10 9 9 9 9 11 13 15 17 19 21 23 25 26 28 30 32 34 36 39 41 42 41 41 42 43 44 45 44 42 40 39 38 37 37 36 33 31 29 28 29 29 29 29 29 28 28 27 26 25 23 21 20 19 20 21 22 24 25 26 27 27 27 27 27 28 28 29 30
21 19 18 18 18 17 17 17 17 16 15 14 13 12 12 11 11 11 11 11 11 13 15 16 18 21 23 24 26 27 29 31 33 35 38 41 42 42 42 43 43 44 45 45 43 41 39 38 37 37 37 35 33 30 29 28 29 29 29 28 27 26 25 24 23 22 21 20 18 18 18 18 18 20 21 22 23 23 24 24 24 25 26 28 30
22 20 18 17 17 18 18 17 17 17 16 15 14 13 12 12 12 12 12 13 13 14 16 18 20 22 24 26 27 29 31 32 34 36 39 42 43 44 43 43 44 44 45 45 42 39 38 38 36 35 36 34 32 30 29 29 29 29 28 27 25 24 22 20 19 18 18 17 17 16 16 16 16 17 18 19 20 21 21 21 21 22 24 25 27
22 21 18 17 18 19 19 18 17 17 17 16 14 13 13 13 13 14 14 15 15 16 18 20 22 24 26 27 28 30 32 34 35 38 40 43 44 45 44 44 44 45 45 44 40 38 37 36 35 35 35 33 31 30 30 29 28 27 26 25 23 21 20 18 16 15 15 14 15 15 15 15 15 15 16 17 18 18 18 17 18 19 20 22 23
22 21 20 18 18 19 19 19 18 18 17 17 15 14 14 14 15 15 16 16 17 18 19 21 23 26 27 28 29 31 34 35 37 39 41 44 45 45 45 44 45 45 44 41 38 37 37 35 34 34 34 31 30 29 29 28 26 24 22 21 19 18 16 15 13 12 11 10 10 11 12 13 14 14 14 14 15 14 13 13 13 14 16 17 17
22 22 21 20 20 20 20 20 19 19 19 18 17 16 15 15 16 17 17 17 18 19 21 23 25 27 28 29 30 32 35 37 38 40 42 45 46 46 45 44 45 45 42 39 37 36 36 34 33 33 31 29 28 28 28 27 24 22 20 18 17 16 14 13 11 10 8 6 5 5 7 9 9 9 10 10 9 9 8 8 9 11 13 13 12
23 23 22 21 21 21 21 21 21 21 20 19 18 18 17 17 17 18 18 19 20 21 22 24 27 28 29 30 31 34 37 38 39 40 43 46 47 45 44 43 44 43 40 37 35 35 34 33 32 31 29 27 26 27 28 26 24 21 19 18 17 16 15 13 12 11 10 8 6 4 2 2 3 3 4 5 5 5 5 6 8 10 11 11 10
23 23 23 22 21 22 22 22 22 22 21 21 20 19 18 18 18 19 19 20 21 22 23 26 28 29 30 31 33 35 38 39 40 42 44 46 45 43 42 42 42 41 37 35 34 33 33 32 30 29 27 25 25 25 26 26 24 22 20 19 18 17 16 15 13 12 11 10 9 6 5 3 2 2 2 2 3 4 4 5 7 8 9 9 8
23 24 24 23 23 23 23 23 23 23 23 22 21 20 20 19 19 19 20 21 22 23 25 27 29 30 31 32 34 37 39 40 41 43 44 44 42 40 40 41 41 38 35 33 32 32 32 31 30 28 26 23 23 23 24 24 23 22 22 21 20 19 17 16 15 14 13 12 10 8 7 6 4 4 3 3 3 3 3 4 5 6 6 6 6
23 24 24 24 24 24 24 24 24 24 24 23 22 21 21 21 20 20 21 22 24 24 26 27 29 31 32 33 36 38 39 41 42 43 43 42 40 39 39 40 39 36 32 31 31 31 31 30 28 26 24 22 21 22 22 22 21 21 21 20 19 18 17 16 15 14 14 12 11 10 9 8 7 6 5 4 3 3 3 3 3 4 4 4 4
23 24 24 24 24 24 25 25 25 26 25 24 23 23 23 22 21 21 22 23 25 26 27 28 30 32 33 35 38 40 40 41 43 43 42 40 37 37 38 38 36 33 30 29 30 30 30 28 26 24 22 21 21 21 21 20 19 19 19 18 18 17 16 16 15 14 13 12 11 10 9 8 8 7 6 5 5 4 4 4 4 3 3 3 4
22 23 23 24 24 25 26 26 27 28 27 26 25 25 25 23 22 21 23 24 25 27 28 29 31 33 35 36 39 41 41 42 44 43 40 37 35 36 37 37 34 30 27 28 29 29 28 26 24 22 21 21 21 20 19 19 18 18 18 18 18 18 18 17 17 16 15 14 12 11 10 9 8 7 6 6 5 5 5 5 5 4 4 4 5
21 22 23 24 24 25 27 28 29 30 29 28 27 27 26 24 22 22 24 24 26 27 29 30 32 34 36 38 41 42 42 43 43 40 36 34 34 35 36 35 31 27 26 27 27 26 25 24 23 21 20 20 19 19 18 18 18 19 19 20 21 21 20 20 19 18 17 16 15 14 13 11 9 8 7 6 6 6 7 7 7 6 6 6 7
22 23 24 25 25 26 28 30 31 31 30 30 29 28 26 25 23 24 24 25 26 28 29 31 33 35 37 39 41 42 42 41 39 36 34 33 33 34 34 33 29 25 24 26 26 24 23 22 22 20 19 18 18 18 19 20 20 21 21 22 22 21 21 20 20 19 19 19 19 18 17 15 13 11 10 9 9 10 11 12 11 10 10 10 11
23 24 24 25 26 27 28 30 31 31 31 31 30 29 28 26 24 24 25 26 27 29 30 32 33 35 38 39 39 41 42 40 37 34 32 31 31 32 33 31 26 23 23 24 24 22 21 21 20 18 17 17 18 19 20 20 20 21 21 21 20 20 20 20 19 19 19 19 19 19 18 18 17 15 14 14 14 14 15 15 15 14 15 15 15
23 23 24 24 26 27 29 30 31 31 32 32 31 31 30 27 26 25 26 27 28 30 31 32 33 36 38 39 39 42 43 41 37 34 30 29 30 31 32 29 24 21 21 22 22 19 17 17 17 16 16 17 18 18 19 19 19 20 20 20 20 19 19 18 18 18 18 17 17 17 17 17 16 16 15 14 14 14 15 15 16 16 16 17 18
24 24 24 25 26 28 30 30 31 31 32 33 33 33 31 28 27 27 27 28 30 31 32 33 34 36 38 39 40 42 42 39 36 32 28 27 28 30 30 27 22 19 19 20 20 17 14 13 13 13 14 15 16 16 17 18 20 21 21 20 19 19 18 18 17 17 16 16 16 15 15 15 14 14 14 14 14 14 15 16 17 17 18 19 20
26 25 25 26 27 28 30 30 31 32 33 34 34 33 31 29 29 28 29 30 31 32 33 34 35 37 38 39 41 41 39 37 33 29 26 26 28 29 29 25 20 18 18 19 18 15 10 9 10 11 12 12 13 15 17 18 20 21 21 20 19 18 18 17 16 16 15 15 15 14 14 14 13 13 13 13 14 14 16 17 18 19 20 21 22
26 27 27 27 28 29 29 30 31 32 33 34 33 32 32 32 31 30 30 31 32 33 34 36 37 37 38 39 40 40 37 35 31 26 24 25 27 28 27 23 18 17 17 17 16 13 7 6 7 8 9 10 12 14 16 18 20 20 20 20 20 19 18 17 16 15 14 14 14 13 13 13 12 12 12 12 13 15 16 18 19 20 21 21 22
27 27 27 27 27 28 29 31 32 32 33 33 33 33 34 34 34 33 32 32 33 35 36 37 37 37 38 39 39 37 35 33 29 25 24 25 27 28 26 21 17 16 16 16 15 11 6 3 4 5 6 9 11 13 15 17 18 19 20 20 21 20 19 17 16 14 13 13 12 12 12 11 11 11 11 11 13 14 16 17 18 19 19 19 20
28 27 26 25 25 26 28 30 32 32 33 33 34 35 37 38 37 36 35 35 35 37 38 37 37 37 36 37 36 34 33 31 27 24 24 25 26 27 24 19 16 16 15 15 14 10 6 2 1 2 4 7 9 11 13 15 17 18 20 21 22 22 20 18 16 14 13 12 11 10 10 10 9 10 9 10 11 13 14 15 15 16 17 17 16
28 27 25 24 24 25 27 30 31 33 33 34 36 40 43 43 41 38 38 38 38 39 38 37 36 34 34 34 33 31 31 30 26 23 24 25 26 26 22 18 16 15 15 15 14 10 6 4 2 1 3 5 7 9 11 13 15 17 19 21 22 23 22 20 17 15 13 12 10 10 9 9 9 9 8 8 9 11 11 12 12 13 14 13 13
29 28 27 27 28 29 31 32 32 32 33 35 39 41 42 42 39 37 38 40 39 38 37 35 33 32 31 31 30 30 30 28 25 23 23 24 26 25 21 17 15 15 14 14 14 11 7 5 4 3 2 3 6 8 9 11 13 15 18 20 22 23 22 20 18 15 13 12 11 10 9 9 8 7 6 6 7 8 8 9 9 10 10 10 10
29 28 28 29 30 32 33 34 34 34 35 37 39 38 38 37 36 36 37 38 38 36 34 32 30 29 29 29 28 29 29 27 24 23 23 24 25 24 20 16 15 15 14 14 13 10 8 7 6 5 4 3 5 7 8 10 12 15 17 18 20 22 22 21 18 15 13 11 10 9 8 7 6 5 5 5 5 5 6 6 6 7 7 8 8
27 29 29 29 30 33 35 36 35 34 35 37 37 37 36 36 36 38 39 38 37 35 32 29 27 27 26 26 27 28 28 25 23 22 22 23 24 23 18 15 15 14 13 13 12 9 7 7 7 6 6 5 6 7 8 10 12 14 16 18 19 20 21 20 18 15 12 10 8 8 7 6 5 5 4 4 4 5 5 6 6 7 7 8 9
27 29 29 28 31 34 36 36 35 34 36 38 38 38 38 38 37 38 39 38 36 32 28 25 24 24 24 25 26 27 26 23 21 21 21 22 23 22 17 15 15 14 13 12 11 9 7 7 7 7 7 6 7 8 9 10 12 14 15 17 18 19 19 19 17 15 12 9 8 7 7 6 5 5 5 5 5 5 6 6 7 8 9 9 10
28 29 29 30 32 34 33 34 36 37 37 37 38 40 41 41 37 35 35 34 31 27 24 22 22 22 22 24 25 25 22 20 20 19 20 22 22 20 16 15 14 14 13 12 10 8 7 7 8 8 7 7 7 8 9 11 12 13 15 16 17 17 17 17 16 14 11 9 8 7 7 6 6 6 6 6 6 6 6 7 8 8 9 10 11
32 33 33 32 33 33 33 34 36 38 38 38 41 43 42 37 32 30 30 29 25 21 20 20 21 21 22 23 23 21 19 18 19 19 19 21 21 18 15 14 14 13 12 12 11 9 8 8 9 9 8 7 7 8 9 11 12 13 14 15 16 16 16 16 15 13 11 10 8 7 6 6 6 6 6 6 6 7 7 8 9 10 11 12 13
34 35 35 35 36 37 37 37 38 39 40 41 42 40 35 29 25 25 24 21 18 17 18 20 20 21 22 22 21 20 18 18 18 18 18 20 20 17 14 13 13 12 12 12 11 10 9 9 9 9 8 7 7 8 9 11 12 12 13 14 14 14 14 14 13 12 11 10 8 7 7 6 6 6 6 7 7 8 9 10 11 12 13 14 14
34 34 34 36 39 41 40 39 39 38 38 37 34 31 27 23 20 19 16 14 14 16 18 19 21 21 21 22 21 20 19 18 18 17 18 19 19 16 13 13 12 12 12 12 11 11 10 10 10 10 9 8 8 8 9 10 11 11 12 12 13 13 13 12 12 11 10 9 8 7 7 6 7 7 7 8 9 10 11 12 13 13 14 14 14
34 34 33 36 40 41 40 37 36 34 32 30 27 24 21 17 13 11 11 11 14 16 18 19 20 21 21 21 21 20 19 18 17 16 18 19 18 15 13 12 12 12 12 12 11 10 10 10 10 10 9 8 8 8 9 10 10 11 11 11 11 11 11 11 11 10 9 8 7 7 7 7 7 7 8 9 10 10 11 12 13 13 14 15 15
30 31 32 32 34 34 32 30 29 29 28 26 22 17 14 11 9 9 10 12 14 16 17 18 19 19 20 20 19 18 17 16 16 16 17 18 17 15 13 12 12 11 11 11 10 9 9 9 9 9 8 8 8 8 9 9 10 10 10 10 10 10 9 10 10 9 8 8 7 7 7 8 8 8 9 10 11 12 12 13 14 14 15 16 17
27 28 27 27 27 26 25 24 25 26 26 23 19 14 10 9 9 10 11 12 14 15 17 17 17 18 18 18 17 17 16 15 15 16 17 18 16 14 12 11 11 11 11 10 8 7 7 7 8 8 7 7 8 9 9 9 9 9 9 10 10 9 9 9 9 9 8 8 8 9 9 9 10 10 11 11 12 13 13 14 15 16 17 17 18
26 26 25 27 28 27 25 24 24 24 24 21 18 14 11 10 11 11 12 13 14 15 16 17 16 16 16 16 16 15 15 15 16 17 18 17 16 13 11 10 10 10 9 8 6 5 5 5 6 6 7 7 8 9 8 8 8 8 8 9 9 10 9 9 9 9 9 9 10 10 11 11 12 12 12 13 13 14 14 15 16 16 17 17 18
23 25 25 25 26 25 24 24 23 23 21 19 16 13 12 12 12 13 13 14 15 15 16 16 16 16 16 16 16 15 15 16 16 17 18 17 16 13 11 9 8 8 7 6 4 3 3 4 4 5 6 7 8 8 8 7 7 8 8 8 9 9 10 10 10 10 10 11 11 11 11 12 12 13 13 14 14 15 15 16 16 17 17 17 18
20 24 24 22 22 22 23 23 23 22 20 17 15 15 14 14 14 15 15 16 16 16 15 15 15 16 16 16 16 16 16 17 17 18 18 18 16 13 11 9 7 6 6 4 3 3 3 3 4 5 6 6 7 7 7 8 8 8 8 8 9 9 10 10 11 11 11 12 12 12 13 13 13 14 15 15 15 15 16 16 16 17 17 18 19
19 22 22 21 20 19 20 20 20 19 18 17 17 17 16 16 16 17 17 17 16 16 16 16 16 17 17 16 16 16 17 18 18 18 18 18 16 13 11 9 7 6 5 4 3 3 3 3 3 4 5 5 6 7 8 8 8 8 8 8 9 9 10 11 11 12 12 13 14 14 14 15 15 15 15 15 15 15 15 15 16 17 18 20 21
18 20 22 22 21 20 20 20 20 19 18 18 19 18 18 18 18 18 17 17 17 17 17 17 18 19 18 17 16 17 18 19 19 19 19 18 16 14 11 10 8 7 6 5 5 4 4 3 3 4 4 5 6 7 8 8 9 9 9 9 10 10 11 12 12 13 13 14 15 15 15 15 16 15 15 15 15 15 16 17 18 19 21 22 23
17 18 19 21 21 22 22 21 20 20 19 19 19 20 20 19 18 18 18 18 18 18 19 20 20 20 18 17 17 18 19 19 19 19 19 18 17 15 12 11 10 8 8 7 6 5 5 4 4 4 5 5 6 7 8 9 10 10 10 10 11 11 12 13 13 14 14 15 15 15 15 15 15 15 15 15 16 16 17 19 21 22 23 24 25
17 17 17 19 21 23 23 21 20 20 20 20 20 21 21 19 18 18 18 18 18 19 20 20 19 18 17 16 17 18 19 19 19 19 19 19 17 15 14 13 11 10 9 8 7 6 6 5 5 5 5 6 6 7 9 10 10 11 11 12 12 13 13 14 14 15 15 15 15 16 16 16 16 16 16 16 17 18 20 21 23 24 25 26 27
17 16 16 18 20 23 25 23 21 20 21 21 21 21 21 19 18 18 18 18 18 18 17 16 15 14 14 15 17 18 19 20 20 20 20 19 18 16 15 14 13 12 11 10 9 8 7 7 7 7 7 7 7 8 9 10 11 12 12 13 13 14 14 15 15 15 15 15 16 16 16 16 16 17 17 18 19 20 21 23 24 25 26 27 27
17 16 16 17 18 21 24 26 25 23 22 22 22 21 21 19 19 18 18 17 16 14 13 12 12 12 13 15 16 18 19 20 20 20 20 20 18 17 16 15 14 13 12 12 11 10 9 9 9 9 9 9 9 10 10 11 12 12 13 14 14 15 16 16 16 16 16 16 17 17 17 17 17 17 18 19 20 21 22 24 25 27 27 27 27
19 19 18 18 19 20 23 25 26 25 24 23 22 22 21 20 19 18 17 16 14 13 12 11 11 12 12 14 15 17 18 19 20 20 21 20 19 17 17 16 15 15 15 14 13 12 12 12 12 12 12 12 12 13 13 14 14 14 15 15 15 16 17 17 18 18 18 18 18 18 18 18 18 18 19 20 22 23 24 26 27 27 27 27 27
22 22 21 21 21 21 23 25 26 26 25 23 22 21 21 20 19 18 17 15 14 12 12 11 11 12 12 14 15 17 18 19 20 20 21 20 19 18 17 17 17 17 17 17 16 15 15 15 15 15 16 16 16 16 16 16 17 17 17 17 17 17 18 18 19 19 19 19 19 19 19 19 19 20 21 22 23 25 26 26 27 26 26 27 27
24 23 23 23 22 22 24 25 25 25 24 22 21 20 20 20 20 19 16 14 13 13 12 12 12 13 14 14 15 17 18 19 19 20 20 20 19 18 18 18 18 19 19 19 19 18 18 18 18 18 18 19 19 19 19 19 19 19 19 19 19 19 19 19 20 20 20 20 20 20 20 20 21 22 23 24 25 26 26 26 26 26 26 27 26
26 26 25 24 23 23 24 26 26 25 23 21 20 20 20 21 21 20 18 17 15 14 13 13 14 14 14 15 16 17 18 19 19 19 20 20 20 20 19 19 19 20 20 21 21 20 20 20 20 20 20 21 21 21 21 21 21 21 21 20 20 20 20 20 20 21 21 21 21 21 21 22 23 23 24 26 26 26 25 25 25 26 26 26 26
28 28 26 25 24 23 23 25 27 28 26 23 21 20 20 21 21 21 21 20 19 18 17 16 16 16 16 16 16 17 18 19 19 19 20 20 21 20 20 20 20 21 21 21 21 21 21 21 22 22 22 22 23 23 23 23 23 23 22 22 21 21 21 21 21 21 22 22 22 22 22 23 24 25 26 26 26 25 25 25 25 25 25 25 26
Wind_Direction
206 205 202 197 193 189 188 193 200 204 206 208 210 220 234 244 254 267 295 321 330 335 340 340 339 340 341 340 341 340 339 339 338 337 336 335 334 334 333 333 333 333 331 329 326 324 322 320 319 318 317 315 314 312 310 310 310 308 305 303 301 299 297 294 291 286 278 271 267 265 263 261 259 259 260 262 263 264 264 264 264 262 261 261 261
209 207 204 200 197 194 195 198 204 208 211 213 216 227 240 246 255 267 285 301 309 322 328 330 332 335 336 337 338 338 339 338 336 334 332 332 334 335 334 334 334 334 332 330 328 326 324 323 321 319 318 316 315 314 313 312 311 309 307 306 305 304 301 298 295 292 286 279 273 268 264 261 259 258 259 260 262 263 264 264 264 263 262 262 262
213 210 206 204 202 201 202 205 209 213 215 217 221 231 241 245 251 260 273 285 297 311 318 323 327 330 332 334 336 337 337 336 333 331 331 332 335 335 335 335 335 334 333 332 330 327 325 324 322 321 320 320 319 318 316 315 314 313 312 310 309 307 304 300 297 294 290 285 279 274 268 264 261 259 257 258 259 262 264 265 265 265 266 265 265
216 213 209 208 208 207 209 212 214 217 219 221 226 234 241 244 250 259 269 280 293 305 312 318 323 326 329 332 334 335 335 334 332 331 333 334 336 335 335 336 336 336 335 333 330 328 327 327 327 326 326 325 324 322 320 317 315 313 311 310 308 305 303 299 296 293 290 286 281 277 271 266 264 261 259 259 260 260 262 264 265 266 268 269 269
218 216 213 212 212 212 215 218 219 220 222 224 229 237 241 244 251 261 270 280 291 301 308 315 320 323 326 329 331 332 333 332 332 333 335 336 336 336 336 336 337 338 336 334 331 331 332 333 333 332 332 331 330 327 324 320 316 314 312 311 309 307 304 301 297 293 290 286 282 279 275 271 267 265 263 262 262 261 261 262 264 266 269 270 271
218 218 216 216 216 216 219 222 223 223 224 227 233 238 243 247 255 264 272 280 290 299 307 312 316 319 322 326 329 330 331 331 332 334 336 336 337 337 338 338 339 338 336 334 334 335 336 336 336 335 335 335 334 333 329 325 321 319 318 316 314 312 309 305 301 296 292 288 283 278 276 274 271 269 267 265 265 264 263 263 265 267 268 268 268
219 219 219 218 217 219 223 225 226 225 226 230 235 241 245 250 258 265 272 281 289 298 304 308 312 316 319 324 328 330 330 331 332 334 335 337 338 339 340 340 339 338 336 335 337 338 338 337 337 338 338 337 337 336 333 330 327 326 325 324 323 321 317 313 308 301 294 288 281 275 271 269 268 268 267 267 266 266 266 266 266 267 267 267 268
219 219 220 220 220 222 226 229 229 229 230 232 236 242 247 252 259 266 273 281 289 296 301 305 309 313 316 322 327 329 330 331 332 334 335 337 339 340 340 340 339 338 337 337 338 339 338 339 340 340 340 339 339 339 338 336 334 333 333 333 332 331 329 325 318 309 300 290 281 274 268 265 264 264 265 266 266 268 269 269 269 269 270 270 271
219 219 221 221 223 226 229 232 232 232 234 236 237 242 247 252 259 266 273 281 288 294 299 303 307 310 315 320 326 329 329 330 332 334 336 337 338 339 340 339 339 338 337 338 339 340 340 341 343 342 340 340 341 344 344 343 342 343 345 346 345 344 342 337 330 323 314 302 288 277 270 265 264 263 262 263 264 267 270 272 272 271 271 271 272
219 220 221 223 225 228 231 233 235 236 237 238 239 242 247 251 258 265 273 280 287 293 298 302 305 309 313 320 325 328 329 330 332 334 335 336 337 338 339 339 338 337 337 339 340 341 342 343 344 343 341 342 346 350 351 351 353 356 360 4 5 5 3 358 355 355 350 340 321 293 272 264 262 261 262 263 263 267 270 274 275 272 271 273 275
219 220 222 223 226 229 233 236 238 239 240 240 241 244 248 252 258 265 273 280 287 292 297 301 304 307 313 320 325 328 329 330 332 333 334 335 337 338 338 337 337 336 337 340 341 342 343 344 345 344 343 345 350 354 357 0 3 6 11 16 19 22 22 20 23 26 26 28 30 28 356 289 277 274 272 272 275 278 281 282 279 273 273 278 284
220 221 222 224 226 230 235 238 241 243 244 244 245 247 251 255 260 266 273 280 286 292 296 300 303 307 314 320 324 328 329 330 331 332 333 335 336 337 337 336 335 336 339 341 342 343 345 346 346 346 347 349 352 356 360 5 9 13 18 22 24 27 29 29 30 32 34 36 36 34 38 32 14 0 338 313 306 303 300 293 285 280 280 283 284
220 222 224 225 227 231 236 240 243 246 248 249 250 251 254 258 262 267 273 280 286 291 295 299 303 308 314 320 325 328 329 329 331 332 334 336 337 337 337 335 335 337 340 341 343 346 347 347 348 349 350 351 353 356 1 5 10 15 20 24 26 28 31 33 33 33 35 36 35 34 36 34 29 25 14 356 341 336 331 313 299 295 295 290 285
221 223 225 226 228 233 237 241 245 248 250 252 253 255 257 260 263 267 273 279 285 290 295 299 303 309 315 321 325 327 327 328 331 333 335 336 337 337 336 334 335 338 340 342 345 348 349 349 350 352 353 354 355 358 1 4 9 15 19 21 23 25 28 30 30 31 31 31 30 32 31 28 29 29 20 11 14 19 15 353 332 323 318 315 313
223 225 227 228 231 234 239 242 246 248 251 253 254 256 259 260 263 267 271 278 284 289 294 299 304 309 315 320 324 325 326 328 330 332 334 335 337 336 335 334 336 339 340 344 348 351 351 351 354 356 358 359 1 2 3 5 9 14 17 19 19 19 22 23 23 24 25 25 26 27 27 27 29 32 31 26 24 30 34 24 11 6 359 350 342
227 229 231 233 234 237 240 243 246 249 251 253 255 257 259 262 264 266 270 277 283 289 294 299 304 309 315 320 324 325 324 326 328 330 332 334 336 336 334 335 338 339 342 348 352 353 354 356 360 3 5 6 7 8 8 10 14 18 22 25 26 26 27 27 28 29 30 32 32 31 30 30 31 32 33 28 22 23 29 29 27 29 25 8 357
230 233 235 236 237 238 240 243 246 249 251 253 255 257 261 264 265 266 269 276 283 288 294 299 304 310 315 319 322 323 323 325 327 329 331 334 336 334 333 336 338 339 345 352 354 355 359 3 8 13 14 14 16 17 20 24 28 32 35 37 38 37 38 38 39 40 41 42 43 42 42 41 41 40 38 35 32 34 41 48 49 45 40 32 24
229 232 234 236 238 239 241 243 247 250 252 254 257 259 263 265 266 267 270 275 281 287 292 298 304 309 313 317 322 326 327 327 328 329 330 333 335 333 333 336 337 340 348 354 355 358 6 11 16 21 24 27 32 34 36 39 41 43 44 44 42 41 40 40 41 42 43 44 46 48 49 51 53 54 54 55 59 63 68 72 70 62 56 54 50
228 230 231 235 238 241 242 245 248 252 255 257 259 261 263 266 267 268 270 274 279 285 291 297 303 307 310 315 322 328 330 329 328 329 330 332 333 332 332 335 337 341 351 356 355 1 13 20 24 29 34 39 43 44 43 43 42 42 42 40 38 37 35 34 34 35 37 39 41 45 48 52 55 60 64 69 73 76 77 76 75 69 63 63 62
233 233 234 236 239 242 245 247 250 254 257 258 259 261 263 266 267 268 269 272 278 283 289 295 300 303 307 313 321 327 329 329 328 328 329 331 332 330 331 334 336 343 353 357 356 2 18 29 32 36 39 41 42 42 41 39 38 36 34 31 30 29 27 26 27 29 31 34 37 41 45 49 55 60 65 70 74 76 76 74 73 70 68 67 68
242 241 240 240 241 244 247 250 253 256 257 258 258 261 264 267 268 268 269 272 277 282 287 292 296 300 306 312 318 323 326 327 327 327 328 330 330 329 329 331 335 343 353 357 356 0 20 38 40 39 39 38 38 37 37 36 34 32 29 25 23 22 21 20 21 23 27 31 34 38 43 48 52 58 63 67 70 72 74 74 73 73 73 74 74
248 249 248 246 245 246 249 253 256 257 258 258 259 262 265 267 268 269 270 272 276 280 286 290 294 299 306 311 316 320 324 326 326 326 327 329 329 328 327 329 335 344 352 357 355 356 16 45 49 41 37 34 33 33 34 34 33 30 26 22 20 18 18 19 18 20 25 29 32 37 42 46 50 55 60 66 69 72 75 78 79 79 79 79 78
249 251 252 252 251 252 254 257 258 259 261 262 264 266 266 266 267 268 269 271 275 279 283 287 292 298 306 310 314 320 324 325 325 325 328 329 327 324 324 327 334 343 350 356 354 350 2 47 57 45 34 28 27 30 33 34 33 30 26 22 19 18 17 18 18 19 23 29 32 36 41 45 49 53 58 66 72 77 81 84 85 83 81 78 77
246 249 252 255 257 259 261 262 263 264 265 267 268 268 267 267 267 267 268 270 273 277 280 285 291 299 305 309 314 320 322 321 322 325 327 327 323 321 321 325 333 341 347 353 352 344 339 22 63 50 32 26 25 28 32 34 33 29 26 24 21 19 18 17 16 17 22 28 33 37 40 44 48 53 59 69 78 83 85 86 85 83 80 77 74
242 246 251 255 260 263 265 266 266 266 266 267 268 267 267 265 263 264 267 268 271 274 278 284 293 299 303 308 314 318 318 317 319 323 324 323 320 318 319 323 332 339 344 348 349 338 317 303 44 43 29 24 22 24 30 32 29 27 25 23 22 20 18 16 14 15 19 25 32 38 41 45 49 55 61 72 81 85 86 86 84 82 79 74 69
243 245 247 251 255 259 261 262 263 262 264 265 265 268 270 267 260 259 263 266 269 273 278 286 294 299 302 307 313 314 313 313 317 320 321 318 317 316 316 322 331 337 340 344 345 336 310 278 265 314 13 20 15 17 22 23 22 22 21 20 19 18 16 15 12 11 13 18 24 31 38 42 47 53 61 71 82 86 86 85 82 78 74 68 61
248 247 246 246 248 249 251 253 255 257 260 263 265 270 276 272 262 258 261 265 270 275 280 287 294 298 301 307 310 309 308 309 313 317 316 315 314 314 314 320 329 335 338 342 343 335 312 281 262 265 302 355 3 6 9 10 12 13 14 14 13 13 13 12 10 8 8 10 14 20 25 31 37 44 55 67 78 81 80 77 72 66 61 55 45
250 249 248 248 248 250 251 252 253 254 257 262 266 273 278 275 267 264 266 269 275 279 283 288 293 297 301 305 307 305 304 305 310 312 312 312 312 311 312 318 327 332 337 341 341 330 305 277 261 260 275 310 336 347 351 356 1 4 5 5 5 6 8 9 8 7 6 7 9 11 14 19 27 36 45 54 61 62 59 54 48 40 35 27 17
248 249 251 252 255 256 255 252 252 254 257 262 268 275 277 275 271 268 269 275 281 283 284 288 292 296 301 304 303 302 301 303 306 307 308 310 310 308 309 317 325 330 335 338 338 328 301 277 266 264 272 288 306 322 336 345 350 354 355 356 357 358 1 3 4 4 4 4 6 7 7 9 17 25 30 32 32 27 20 13 7 2 359 354 349
251 254 256 257 259 260 258 254 254 259 263 267 272 277 277 276 274 269 269 276 283 284 283 286 292 297 302 303 301 300 300 301 301 302 305 309 308 305 308 316 322 327 332 334 335 329 308 284 274 269 271 281 294 309 323 332 338 342 345 347 348 350 354 357 360 0 0 0 2 5 5 5 9 13 15 16 13 5 356 349 343 340 338 335 333
255 257 259 258 260 262 262 259 258 262 266 270 274 277 277 277 275 269 269 277 283 283 282 286 292 297 300 301 300 300 299 298 296 299 305 308 305 302 306 313 319 324 327 329 332 329 311 288 277 272 275 285 297 308 315 321 327 332 336 339 342 345 348 353 355 355 354 356 358 1 4 6 8 9 8 6 360 351 342 336 332 330 328 326 326
257 257 258 259 260 261 259 257 257 259 263 267 271 273 276 277 274 269 271 278 281 280 280 286 292 296 298 297 298 299 298 294 294 299 305 305 301 298 302 310 316 319 321 323 328 327 312 292 280 277 280 290 301 310 315 318 322 327 331 336 340 342 346 350 351 350 350 351 353 356 359 4 6 6 3 356 348 341 334 329 327 325 325 325 325
259 259 259 261 262 262 260 259 260 261 263 267 270 271 273 274 273 271 272 274 275 276 283 289 294 296 295 294 294 296 294 291 293 300 304 302 298 295 298 306 311 314 315 318 323 322 311 297 286 282 285 295 307 315 319 320 323 327 332 337 340 343 346 349 350 349 348 346 347 350 352 354 355 353 349 343 336 332 329 327 327 327 328 328 328
258 259 258 258 259 261 262 262 262 263 265 267 268 268 268 268 267 267 267 270 276 284 290 295 295 295 293 291 291 290 288 288 293 299 302 300 295 291 295 302 306 308 310 313 316 314 307 298 290 287 291 301 311 318 321 323 325 330 335 340 343 346 349 352 353 351 346 342 343 346 348 350 350 346 343 338 334 332 332 332 332 332 331 331 331
256 255 254 253 254 257 261 262 261 260 260 260 261 262 263 263 263 264 269 279 288 293 295 296 295 294 293 291 288 285 283 285 292 298 299 296 291 287 291 298 301 303 307 308 309 307 302 295 290 290 294 304 311 317 322 325 329 335 339 342 346 351 355 357 356 353 347 345 347 349 350 352 351 348 345 341 338 338 337 336 335 334 332 331 331
254 251 250 249 249 251 255 256 253 250 249 250 251 252 253 254 258 267 276 285 291 294 295 296 296 296 295 290 284 280 280 285 292 296 296 291 285 282 287 293 297 302 305 305 304 301 295 290 288 289 294 304 310 316 322 328 333 339 342 346 350 356 2 3 359 353 350 350 353 354 353 353 352 350 347 344 341 339 338 336 334 332 332 331 331
251 247 243 238 237 242 247 245 241 242 243 243 242 242 245 247 252 261 273 282 288 291 294 296 298 298 295 289 281 278 281 287 291 294 292 286 279 278 283 290 296 301 304 303 303 298 289 283 284 286 294 303 310 315 321 329 335 341 345 349 352 357 1 2 358 353 351 351 352 352 350 348 347 344 342 340 338 336 334 333 331 330 330 330 329
249 245 241 237 238 243 243 237 234 237 239 239 239 242 243 244 249 260 271 275 279 287 292 295 295 295 292 287 282 282 285 288 290 290 287 279 273 272 278 285 291 297 300 301 301 292 277 271 276 283 293 302 309 314 320 328 335 341 346 350 351 350 350 351 348 345 344 344 343 343 342 340 338 337 335 334 333 331 330 329 328 328 328 328 328
250 245 243 243 244 244 239 234 234 235 235 234 236 238 239 242 250 261 267 268 272 282 290 292 291 290 288 285 284 286 287 288 288 287 282 273 267 267 271 276 283 288 292 293 290 273 254 254 267 283 294 302 309 314 319 325 332 337 342 345 346 343 341 339 338 338 338 336 335 335 334 333 331 331 330 329 327 326 326 326 326 327 327 327 328
250 244 241 242 244 243 240 236 234 233 232 233 236 237 239 245 253 260 263 265 270 278 286 290 290 287 285 284 285 287 287 286 286 283 276 268 262 262 263 264 269 274 275 271 255 233 233 246 266 283 293 301 308 314 317 322 326 331 335 338 338 336 335 334 334 333 332 331 329 328 327 326 325 325 324 323 323 323 324 324 325 326 326 327 328
252 247 245 245 245 245 242 236 231 229 231 235 238 239 242 247 254 260 264 267 269 275 281 287 289 287 283 281 283 285 284 284 283 279 271 263 257 255 253 251 252 254 251 240 223 217 228 244 261 277 290 299 307 311 313 315 318 322 326 328 329 329 328 328 329 328 327 326 325 324 323 322 321 320 320 320 320 321 322 322 323 323 324 325 326
258 255 252 250 249 250 246 236 230 229 232 236 239 242 245 250 257 264 267 268 271 275 279 283 286 285 281 277 278 280 281 281 281 276 267 258 252 249 244 239 237 238 236 228 219 217 225 237 250 270 286 297 304 306 307 309 311 314 317 319 321 322 322 323 324 325 325 325 324 323 322 322 320 319 319 319 319 320 320 321 322 323 324 325 325
263 262 258 254 253 254 250 241 234 234 237 239 242 244 249 256 263 268 270 270 273 277 280 281 282 280 275 272 274 277 278 279 279 274 264 255 249 245 238 231 228 230 232 230 226 223 226 236 251 267 279 288 296 300 303 305 307 309 311 313 314 315 316 317 319 320 321 322 324 324 323 323 321 320 319 319 318 318 319 320 322 323 324 324 325
261 262 261 258 255 254 250 244 239 239 240 242 244 248 254 262 267 269 270 273 277 280 280 278 275 270 267 268 273 277 278 279 278 271 262 252 246 242 236 229 224 225 229 231 231 229 231 240 252 263 273 281 289 296 300 304 306 308 309 310 310 311 311 311 312 314 316 319 321 323 323 323 322 320 319 317 317 317 318 320 322 323 323 324 324
254 255 258 260 259 254 248 243 241 242 243 244 247 251 257 264 268 270 272 275 278 279 278 273 266 262 263 268 274 278 279 279 276 270 260 250 243 239 235 229 224 224 227 230 231 232 234 241 251 261 270 279 288 296 301 304 307 309 310 310 311 311 310 310 311 311 313 315 317 320 321 322 321 320 318 317 317 318 319 321 322 323 324 324 325
246 246 250 255 258 255 249 245 245 245 245 245 248 253 259 265 268 270 272 275 276 274 270 264 260 260 265 271 276 279 280 279 276 268 258 249 242 237 234 231 228 227 229 231 232 235 239 245 253 262 271 278 286 293 299 302 306 309 311 312 313 314 314 314 314 313 313 313 315 317 318 319 319 318 318 318 319 320 321 322 323 324 325 325 325
239 239 245 252 257 256 251 246 243 242 243 245 249 255 260 264 266 268 270 272 271 267 263 259 258 262 268 272 276 278 279 279 274 265 255 248 243 238 235 232 231 232 233 235 238 241 246 252 259 267 274 280 285 289 293 297 301 305 308 310 313 315 316 317 317 316 315 314 314 314 315 315 316 317 318 319 321 322 323 324 325 325 325 325 326
238 238 245 253 259 258 251 243 238 238 241 245 251 255 259 261 262 263 266 269 267 263 261 259 260 263 268 271 274 276 277 277 272 263 254 248 244 240 237 235 234 235 237 239 242 245 250 256 263 270 276 281 285 288 290 293 297 301 304 307 309 311 313 315 316 316 315 314 313 313 313 313 315 317 319 321 323 324 325 325 325 325 325 326 326
238 238 244 251 256 256 249 240 236 238 243 246 249 254 257 257 257 257 260 265 267 266 263 261 262 264 266 269 271 273 274 273 269 261 253 248 245 243 240 237 237 238 240 242 245 249 253 258 264 270 275 279 283 286 288 291 293 297 300 303 305 307 309 311 313 314 313 312 311 312 313 315 317 320 321 323 324 325 325 325 325 325 326 326 328
238 238 242 246 250 250 245 239 238 242 247 249 251 254 255 254 254 254 256 259 265 268 268 265 263 262 263 264 267 269 271 270 265 258 251 247 246 245 243 241 241 242 243 245 249 253 256 260 265 270 274 277 280 283 285 288 290 293 296 299 301 303 306 308 310 311 311 310 311 312 314 317 319 321 322 324 324 325 325 325 325 326 327 328 329
239 240 242 244 245 244 243 242 244 247 249 250 251 252 252 252 253 254 255 256 260 265 267 265 261 259 259 259 261 264 267 266 262 256 250 248 247 247 246 244 244 246 247 249 252 256 260 264 267 271 274 276 279 281 283 285 287 290 293 296 298 301 304 306 308 309 309 309 310 313 316 318 320 321 322 324 324 324 325 325 326 327 328 329 330
Height
5930 5930 5931 5933 5934 5935 5936 5937 5938 5939 5939 5940 5941 5941 5941 5942 5942 5942 5941 5941 5940 5940 5939 5938 5938 5937 5936 5935 5934 5933 5931 5929 5926 5924 5922 5919 5917 5914 5911 5907 5904 5900 5896 5892 5888 5884 5880 5875 5871 5867 5863 5859 5855 5852 5848 5845 5843 5840 5837 5835 5833 5832 5831 5829 5828 5828 5828 5827 5827 5826 5826 5828 5828 5828 5828 5828 5828 5829 5830 5831 5832 5832 5833 5834 5835
5929 5929 5931 5932 5934 5935 5935 5936 5937 5938 5939 5939 5940 5940 5940 5941 5941 5941 5940 5940 5939 5939 5938 5938 5937 5936 5935 5934 5933 5931 5929 5927 5924 5922 5920 5918 5915 5912 5908 5904 5900 5896 5892 5888 5884 5879 5875 5871 5866 5862 5858 5854 5850 5847 5844 5841 5838 5836 5833 5830 5828 5827 5826 5825 5823 5823 5822 5822 5822 5821 5821 5821 5822 5823 5823 5824 5824 5824 5825 5826 5826 5827 5828 5829 5831
5928 5929 5931 5932 5933 5934 5935 5935 5936 5937 5938 5938 5939 5939 5940 5940 5940 5940 5939 5939 5938 5938 5938 5937 5936 5935 5934 5933 5931 5929 5927 5925 5923 5921 5918 5915 5912 5909 5905 5901 5897 5893 5889 5884 5880 5876 5871 5866 5862 5857 5853 5850 5846 5842 5839 5836 5834 5832 5829 5827 5825 5823 5822 5821 5820 5819 5818 5818 5818 5817 5816 5816 5816 5817 5818 5819 5819 5820 5820 5821 5822 5822 5823 5824 5825
5928 5929 5931 5932 5933 5934 5934 5935 5935 5936 5937 5938 5938 5939 5939 5939 5939 5939 5938 5938 5937 5937 5937 5936 5935 5934 5932 5931 5930 5928 5926 5924 5922 5919 5916 5913 5910 5907 5903 5899 5895 5890 5885 5881 5876 5872 5867 5862 5858 5853 5849 5846 5842 5839 5836 5833 5830 5828 5826 5824 5821 5819 5818 5817 5816 5815 5815 5814 5814 5813 5813 5812 5812 5813 5814 5815 5815 5816 5817 5817 5818 5818 5819 5820 5820
5927 5929 5931 5932 5933 5933 5934 5934 5934 5935 5936 5936 5937 5938 5938 5938 5938 5938 5937 5937 5937 5936 5935 5934 5933 5932 5931 5930 5928 5926 5924 5922 5920 5917 5914 5911 5908 5904 5900 5896 5891 5886 5881 5877 5873 5868 5863 5858 5854 5850 5846 5842 5839 5836 5833 5830 5827 5825 5823 5820 5818 5816 5814 5813 5811 5811 5810 5810 5810 5810 5809 5809 5809 5809 5810 5811 5812 5813 5814 5814 5815 5815 5816 5817 5816
5927 5929 5930 5931 5932 5933 5933 5933 5933 5934 5935 5935 5936 5936 5937 5937 5937 5937 5936 5936 5936 5935 5934 5933 5932 5930 5929 5928 5927 5925 5923 5921 5918 5915 5912 5909 5906 5902 5897 5892 5888 5883 5879 5874 5869 5864 5859 5855 5851 5847 5843 5839 5836 5833 5830 5827 5824 5821 5819 5817 5815 5812 5810 5809 5808 5807 5806 5806 5806 5806 5806 5807 5807 5807 5808 5809 5809 5810 5811 5811 5812 5813 5813 5813 5812
5926 5928 5930 5930 5931 5932 5932 5932 5933 5933 5933 5934 5935 5935 5936 5936 5936 5936 5935 5935 5934 5933 5932 5931 5930 5929 5928 5927 5925 5924 5921 5919 5916 5913 5910 5907 5903 5899 5894 5890 5885 5881 5876 5871 5866 5861 5857 5853 5849 5845 5841 5838 5835 5831 5828 5825 5821 5818 5816 5813 5811 5809 5807 5805 5805 5804 5803 5803 5803 5804 5804 5804 5805 5805 5806 5807 5807 5807 5808 5809 5809 5810 5810 5809 5809
5925 5927 5929 5930 5930 5931 5931 5931 5932 5932 5932 5933 5933 5934 5934 5934 5935 5934 5934 5934 5933 5932 5931 5930 5929 5927 5926 5925 5924 5922 5919 5917 5914 5911 5908 5904 5900 5896 5892 5888 5883 5878 5873 5868 5864 5859 5855 5851 5847 5843 5840 5836 5833 5830 5826 5823 5819 5816 5813 5811 5808 5806 5804 5803 5802 5801 5801 5801 5801 5801 5802 5802 5803 5803 5804 5804 5804 5804 5805 5806 5807 5807 5806 5806 5806
5924 5926 5927 5928 5929 5929 5930 5930 5930 5931 5931 5931 5932 5932 5933 5933 5933 5933 5933 5932 5931 5930 5929 5928 5927 5926 5925 5924 5922 5920 5917 5915 5912 5908 5905 5901 5898 5894 5890 5885 5880 5875 5871 5866 5862 5857 5853 5849 5845 5842 5838 5835 5832 5829 5825 5822 5818 5815 5812 5809 5806 5804 5803 5801 5800 5799 5799 5799 5799 5800 5800 5800 5801 5801 5801 5802 5802 5803 5803 5804 5804 5804 5804 5803 5803
5923 5925 5926 5927 5928 5928 5929 5929 5929 5929 5929 5930 5930 5931 5931 5931 5931 5931 5931 5930 5930 5929 5928 5927 5926 5924 5923 5922 5920 5918 5915 5912 5909 5906 5902 5899 5896 5892 5887 5882 5878 5873 5869 5865 5860 5855 5851 5847 5844 5841 5837 5834 5831 5828 5825 5822 5818 5815 5812 5809 5806 5804 5802 5801 5800 5799 5798 5798 5798 5799 5799 5799 5799 5800 5800 5801 5801 5801 5802 5802 5803 5802 5801 5801 5801
5921 5923 5925 5925 5926 5927 5927 5928 5928 5928 5928 5928 5928 5929 5929 5929 5929 5929 5929 5929 5928 5928 5927 5926 5924 5923 5921 5920 5918 5915 5913 5910 5907 5903 5900 5897 5893 5889 5885 5881 5876 5872 5868 5863 5858 5854 5850 5846 5843 5840 5836 5834 5831 5828 5825 5822 5818 5815 5812 5810 5807 5805 5804 5802 5801 5799 5799 5799 5799 5799 5800 5800 5800 5800 5800 5801 5801 5801 5801 5801 5801 5801 5800 5800 5799
5920 5922 5923 5924 5924 5925 5926 5926 5926 5926 5926 5926 5927 5927 5927 5927 5928 5928 5928 5927 5927 5926 5925 5924 5922 5921 5920 5918 5916 5913 5911 5908 5904 5901 5898 5894 5891 5887 5883 5879 5875 5871 5866 5862 5857 5853 5849 5846 5842 5839 5836 5833 5831 5829 5826 5822 5819 5816 5813 5811 5809 5807 5805 5804 5803 5801 5800 5800 5800 5800 5800 5800 5800 5800 5800 5800 5800 5800 5800 5800 5800 5800 5800 5799 5798
5918 5920 5921 5922 5922 5923 5924 5924 5925 5925 5925 5925 5925 5925 5925 5925 5926 5926 5926 5926 5925 5924 5923 5922 5921 5919 5918 5916 5914 5911 5908 5905 5902 5898 5895 5892 5889 5885 5882 5878 5873 5869 5865 5861 5857 5852 5848 5845 5842 5838 5836 5833 5831 5829 5826 5823 5820 5817 5814 5812 5810 5809 5807 5806 5805 5804 5803 5802 5802 5801 5801 5800 5801 5800 5800 5800 5800 5800 5800 5799 5799 5799 5799 5798 5798
5916 5918 5919 5920 5921 5921 5922 5923 5923 5923 5923 5923 5923 5923 5923 5923 5924 5924 5924 5924 5923 5923 5922 5920 5919 5917 5916 5914 5912 5909 5906 5903 5900 5896 5893 5890 5887 5883 5880 5876 5872 5868 5864 5860 5856 5851 5848 5844 5841 5838 5835 5833 5831 5829 5826 5824 5821 5818 5816 5814 5812 5810 5809 5808 5806 5805 5804 5804 5803 5803 5802 5801 5801 5800 5800 5800 5800 5799 5799 5799 5799 5799 5798 5797 5797
5914 5916 5917 5918 5919 5920 5921 5921 5921 5921 5921 5921 5921 5921 5921 5921 5922 5922 5923 5922 5922 5921 5920 5919 5917 5915 5914 5912 5909 5907 5904 5901 5898 5894 5891 5888 5885 5882 5878 5875 5871 5867 5863 5859 5855 5851 5847 5844 5841 5838 5836 5833 5831 5829 5826 5824 5822 5820 5818 5816 5814 5812 5811 5809 5808 5806 5805 5805 5804 5803 5802 5801 5801 5800 5800 5799 5799 5799 5799 5799 5798 5798 5797 5796 5795
5913 5914 5915 5917 5918 5918 5919 5919 5919 5919 5919 5919 5919 5919 5919 5919 5920 5921 5921 5920 5920 5919 5918 5917 5915 5914 5912 5910 5907 5904 5902 5899 5895 5892 5889 5886 5883 5880 5877 5873 5869 5866 5862 5858 5854 5851 5847 5844 5841 5839 5836 5834 5831 5829 5827 5825 5823 5821 5819 5817 5816 5814 5812 5811 5809 5808 5807 5806 5804 5803 5802 5802 5801 5800 5800 5800 5799 5799 5799 5798 5798 5797 5796 5795 5795
5912 5913 5914 5915 5916 5916 5917 5917 5916 5916 5917 5917 5917 5916 5917 5918 5918 5919 5919 5919 5918 5917 5916 5915 5913 5912 5910 5908 5905 5902 5899 5896 5893 5890 5887 5884 5881 5879 5875 5872 5868 5865 5861 5858 5854 5851 5847 5845 5842 5840 5838 5835 5833 5830 5828 5826 5824 5822 5821 5819 5817 5816 5814 5813 5811 5810 5809 5807 5806 5804 5803 5802 5802 5801 5801 5800 5800 5800 5799 5799 5798 5797 5796 5795 5794
5910 5911 5911 5912 5913 5914 5914 5914 5914 5914 5914 5915 5914 5915 5915 5916 5916 5917 5917 5917 5916 5915 5914 5913 5911 5910 5908 5905 5903 5900 5897 5894 5890 5887 5885 5882 5880 5877 5874 5871 5867 5864 5860 5857 5854 5851 5848 5845 5843 5841 5839 5837 5835 5832 5830 5828 5827 5825 5823 5821 5820 5818 5817 5815 5814 5812 5811 5809 5808 5806 5805 5804 5803 5802 5802 5801 5801 5800 5800 5799 5798 5797 5796 5795 5795
5908 5908 5909 5910 5911 5911 5911 5912 5912 5912 5912 5912 5912 5912 5913 5914 5914 5915 5915 5915 5914 5913 5912 5911 5909 5907 5905 5903 5901 5898 5895 5891 5888 5885 5883 5880 5878 5875 5872 5869 5867 5863 5860 5857 5854 5851 5848 5846 5844 5843 5842 5839 5837 5834 5832 5831 5829 5827 5826 5824 5823 5821 5819 5818 5816 5814 5813 5811 5810 5808 5807 5806 5805 5804 5803 5803 5802 5802 5801 5800 5799 5798 5797 5797 5795
5905 5906 5907 5908 5908 5908 5908 5909 5909 5909 5910 5910 5910 5910 5910 5912 5912 5912 5912 5912 5911 5911 5909 5908 5907 5905 5903 5901 5899 5896 5892 5888 5885 5883 5881 5879 5876 5873 5871 5868 5866 5862 5859 5856 5854 5851 5849 5847 5846 5845 5843 5841 5839 5837 5835 5833 5831 5829 5828 5826 5825 5823 5821 5820 5818 5817 5815 5814 5812 5811 5809 5808 5807 5806 5805 5805 5804 5803 5803 5802 5801 5800 5799 5798 5797
5902 5903 5904 5904 5905 5905 5905 5905 5906 5907 5907 5906 5906 5907 5908 5909 5910 5909 5909 5909 5908 5908 5907 5906 5904 5902 5900 5898 5896 5893 5890 5886 5883 5881 5879 5877 5875 5872 5869 5867 5865 5862 5858 5856 5854 5852 5849 5848 5847 5846 5845 5843 5841 5839 5837 5835 5833 5831 5830 5828 5826 5825 5823 5821 5820 5818 5817 5816 5814 5813 5812 5810 5809 5808 5808 5807 5806 5805 5804 5804 5803 5802 5801 5800 5799
5899 5900 5901 5901 5901 5902 5902 5903 5903 5903 5903 5903 5903 5905 5906 5907 5906 5906 5906 5906 5905 5905 5904 5903 5901 5900 5898 5896 5893 5890 5887 5883 5881 5879 5878 5875 5873 5870 5868 5866 5864 5861 5857 5855 5854 5852 5850 5848 5847 5847 5846 5844 5843 5840 5838 5836 5834 5833 5832 5830 5828 5827 5825 5823 5821 5820 5818 5817 5816 5815 5813 5812 5811 5810 5809 5809 5808 5807 5806 5806 5805 5804 5803 5802 5801
5895 5896 5897 5898 5898 5899 5900 5901 5900 5900 5900 5900 5901 5902 5903 5903 5903 5903 5903 5902 5902 5901 5901 5899 5898 5897 5895 5893 5890 5887 5884 5881 5879 5878 5876 5873 5871 5869 5867 5865 5862 5860 5857 5854 5853 5852 5850 5849 5847 5847 5846 5845 5844 5842 5839 5838 5836 5835 5833 5832 5830 5828 5826 5825 5823 5821 5820 5819 5817 5816 5815 5814 5813 5812 5811 5810 5810 5809 5808 5808 5807 5806 5806 5805 5804
5892 5892 5894 5895 5896 5897 5898 5898 5898 5898 5898 5898 5899 5900 5900 5899 5899 5899 5899 5899 5898 5898 5897 5896 5895 5894 5892 5890 5887 5884 5882 5879 5878 5876 5874 5872 5870 5868 5866 5864 5861 5859 5856 5854 5852 5852 5850 5849 5848 5847 5846 5846 5844 5843 5841 5839 5837 5836 5835 5833 5831 5830 5828 5826 5824 5823 5821 5820 5819 5818 5817 5816 5815 5814 5813 5812 5811 5811 5810 5809 5809 5808 5807 5807 5806
5888 5889 5891 5892 5894 5895 5895 5895 5895 5895 5895 5896 5896 5896 5895 5894 5894 5894 5895 5895 5895 5894 5893 5893 5892 5891 5889 5887 5884 5882 5880 5878 5876 5874 5872 5870 5868 5866 5864 5862 5860 5857 5855 5853 5852 5851 5850 5849 5848 5847 5846 5846 5845 5843 5842 5840 5839 5838 5836 5834 5832 5831 5829 5827 5826 5824 5823 5821 5820 5819 5818 5817 5816 5815 5815 5814 5813 5812 5812 5811 5810 5809 5809 5808 5807
5884 5886 5888 5889 5890 5890 5890 5890 5890 5890 5891 5891 5891 5891 5890 5889 5888 5889 5890 5891 5890 5890 5890 5890 5889 5888 5886 5883 5881 5879 5877 5876 5874 5872 5870 5868 5867 5865 5863 5861 5859 5856 5854 5852 5851 5850 5850 5849 5848 5847 5846 5846 5845 5844 5842 5841 5839 5838 5837 5835 5833 5831 5830 5828 5826 5825 5824 5822 5821 5820 5819 5818 5817 5817 5816 5815 5815 5814 5813 5812 5812 5811 5810 5809 5808
5882 5883 5884 5884 5884 5884 5884 5884 5884 5885 5886 5886 5885 5885 5885 5884 5884 5885 5886 5886 5886 5886 5886 5886 5885 5884 5882 5880 5878 5877 5875 5874 5872 5870 5868 5867 5865 5863 5861 5859 5857 5855 5853 5851 5850 5849 5848 5848 5847 5847 5846 5845 5844 5843 5842 5841 5840 5838 5837 5835 5834 5832 5831 5829 5827 5826 5824 5823 5822 5821 5820 5819 5818 5817 5817 5816 5816 5815 5814 5813 5813 5812 5811 5810 5809
5878 5878 5878 5878 5878 5878 5878 5877 5878 5879 5880 5879 5880 5881 5881 5880 5881 5882 5882 5882 5883 5883 5883 5883 5882 5880 5879 5877 5876 5874 5872 5871 5870 5868 5866 5865 5863 5861 5860 5858 5856 5854 5852 5850 5849 5848 5847 5847 5847 5846 5845 5845 5844 5843 5842 5841 5840 5838 5837 5836 5834 5833 5831 5829 5828 5826 5825 5824 5823 5821 5821 5820 5819 5818 5818 5817 5816 5816 5815 5814 5813 5812 5811 5811 5810
5872 5872 5872 5873 5874 5873 5871 5871 5871 5873 5873 5873 5875 5877 5877 5877 5878 5879 5879 5879 5879 5879 5879 5879 5878 5877 5875 5874 5873 5871 5870 5869 5868 5866 5864 5862 5861 5859 5858 5856 5855 5853 5851 5849 5848 5847 5846 5846 5846 5845 5845 5844 5843 5842 5842 5840 5839 5838 5837 5836 5835 5833 5832 5830 5828 5827 5825 5824 5823 5822 5821 5820 5820 5819 5818 5818 5817 5816 5816 5815 5814 5813 5812 5811 5810
5866 5866 5867 5869 5869 5868 5869 5870 5871 5870 5869 5870 5871 5873 5874 5874 5874 5874 5875 5875 5875 5875 5875 5875 5874 5873 5872 5871 5869 5868 5867 5866 5865 5864 5862 5860 5859 5858 5856 5854 5853 5852 5850 5849 5847 5846 5845 5845 5845 5844 5844 5843 5842 5842 5841 5840 5839 5838 5837 5836 5834 5833 5832 5830 5828 5827 5826 5825 5823 5822 5821 5821 5820 5819 5819 5818 5817 5816 5816 5815 5814 5813 5812 5811 5810
5863 5863 5864 5865 5865 5866 5869 5871 5871 5869 5867 5867 5868 5869 5869 5870 5870 5870 5871 5872 5871 5871 5871 5871 5870 5869 5868 5868 5867 5866 5865 5864 5862 5861 5859 5858 5857 5856 5854 5853 5852 5850 5849 5847 5846 5845 5844 5844 5844 5843 5843 5842 5841 5841 5840 5839 5838 5837 5836 5835 5834 5833 5831 5830 5828 5827 5826 5824 5823 5822 5822 5821 5820 5819 5819 5818 5817 5816 5816 5815 5814 5813 5812 5811 5809
5860 5860 5861 5862 5863 5864 5865 5866 5866 5866 5866 5866 5866 5865 5865 5866 5866 5867 5868 5868 5868 5868 5868 5867 5866 5866 5865 5865 5864 5864 5863 5861 5860 5858 5857 5856 5855 5854 5853 5852 5850 5849 5848 5846 5845 5844 5843 5843 5843 5843 5842 5841 5841 5840 5839 5839 5838 5837 5836 5835 5833 5832 5831 5829 5828 5826 5825 5824 5823 5822 5821 5821 5820 5819 5819 5818 5817 5816 5815 5814 5813 5812 5811 5810 5809
5856 5857 5859 5860 5860 5860 5860 5861 5862 5862 5862 5863 5862 5862 5862 5863 5863 5863 5864 5865 5865 5865 5864 5864 5863 5862 5862 5862 5862 5861 5860 5859 5857 5856 5855 5854 5854 5853 5851 5850 5849 5848 5846 5845 5844 5843 5842 5842 5842 5842 5841 5841 5840 5839 5839 5838 5837 5836 5835 5834 5833 5831 5830 5829 5827 5826 5825 5824 5823 5822 5821 5820 5819 5819 5818 5817 5816 5816 5815 5814 5813 5812 5811 5809 5808
5853 5854 5856 5857 5857 5856 5856 5857 5858 5858 5858 5858 5858 5858 5859 5859 5859 5860 5861 5861 5862 5862 5861 5860 5860 5859 5859 5860 5859 5859 5858 5857 5855 5854 5853 5852 5852 5851 5850 5849 5848 5847 5845 5844 5843 5842 5841 5841 5841 5841 5841 5840 5839 5838 5838 5837 5836 5835 5834 5833 5832 5831 5829 5828 5827 5825 5824 5823 5822 5822 5821 5820 5819 5818 5818 5817 5816 5815 5814 5813 5812 5811 5810 5808 5807
5849 5850 5851 5851 5851 5852 5853 5853 5853 5854 5855 5855 5855 5855 5855 5855 5856 5857 5858 5859 5859 5859 5858 5857 5857 5857 5857 5857 5857 5856 5855 5854 5852 5851 5851 5850 5850 5849 5848 5847 5846 5845 5844 5843 5841 5841 5840 5840 5840 5840 5840 5839 5838 5838 5837 5836 5835 5834 5833 5832 5831 5830 5829 5827 5826 5825 5824 5823 5822 5821 5820 5820 5819 5818 5817 5816 5815 5815 5814 5812 5811 5810 5809 5807 5806
5844 5845 5846 5846 5847 5848 5848 5849 5850 5851 5851 5852 5852 5852 5852 5852 5853 5855 5856 5856 5856 5856 5855 5855 5855 5854 5854 5854 5854 5853 5853 5851 5850 5849 5848 5848 5848 5847 5846 5845 5844 5843 5842 5841 5840 5840 5839 5839 5840 5839 5839 5838 5838 5837 5836 5835 5834 5833 5832 5831 5830 5829 5828 5827 5826 5825 5824 5823 5822 5821 5820 5819 5818 5818 5817 5816 5815 5814 5813 5812 5810 5809 5807 5806 5805
5841 5841 5841 5842 5843 5844 5845 5846 5847 5848 5849 5849 5848 5848 5849 5850 5852 5853 5853 5853 5853 5853 5853 5853 5852 5851 5851 5851 5851 5851 5850 5849 5848 5847 5846 5846 5846 5845 5844 5843 5842 5841 5840 5839 5839 5838 5838 5838 5839 5839 5838 5838 5837 5836 5835 5834 5833 5832 5831 5830 5829 5828 5827 5827 5826 5825 5824 5822 5821 5821 5820 5819 5818 5817 5816 5815 5814 5813 5811 5810 5809 5807 5806 5805 5803
5839 5839 5839 5840 5841 5841 5842 5843 5845 5845 5846 5846 5845 5846 5847 5848 5849 5850 5850 5850 5850 5850 5850 5850 5849 5849 5849 5849 5849 5848 5847 5846 5845 5845 5844 5844 5844 5843 5842 5841 5840 5839 5839 5838 5837 5837 5837 5838 5838 5838 5837 5837 5836 5835 5834 5833 5832 5831 5830 5829 5828 5827 5827 5826 5825 5824 5823 5822 5821 5820 5819 5818 5817 5816 5815 5814 5812 5811 5810 5809 5807 5806 5804 5803 5801
5837 5837 5838 5838 5839 5839 5840 5840 5842 5843 5843 5843 5843 5844 5845 5846 5847 5847 5847 5847 5847 5848 5848 5847 5847 5847 5847 5847 5846 5845 5845 5844 5843 5843 5842 5842 5842 5841 5840 5840 5839 5838 5837 5836 5836 5836 5836 5837 5837 5837 5837 5836 5835 5835 5834 5833 5831 5830 5829 5828 5827 5826 5826 5825 5824 5823 5822 5821 5820 5819 5818 5817 5816 5814 5813 5812 5811 5810 5808 5807 5805 5804 5802 5801 5800
5835 5835 5836 5836 5837 5838 5838 5838 5839 5840 5840 5841 5841 5842 5843 5843 5844 5844 5844 5845 5845 5845 5845 5845 5845 5845 5845 5844 5843 5843 5842 5842 5841 5841 5840 5840 5840 5839 5838 5838 5837 5836 5836 5835 5835 5835 5835 5835 5836 5836 5835 5835 5834 5834 5833 5832 5831 5829 5828 5827 5826 5825 5825 5824 5823 5822 5821 5820 5819 5818 5817 5816 5815 5813 5812 5811 5810 5808 5807 5805 5804 5802 5801 5799 5798
5832 5833 5833 5834 5835 5835 5835 5835 5836 5837 5838 5839 5839 5840 5840 5841 5841 5841 5842 5842 5842 5842 5842 5842 5842 5842 5842 5842 5841 5840 5840 5840 5839 5839 5838 5838 5838 5837 5836 5836 5835 5835 5834 5834 5834 5834 5834 5834 5834 5834 5834 5834 5833 5833 5832 5831 5830 5828 5827 5826 5825 5824 5824 5823 5822 5821 5820 5819 5818 5817 5816 5815 5813 5812 5811 5809 5808 5807 5805 5804 5802 5801 5799 5798 5796
5828 5829 5830 5831 5832 5832 5832 5832 5833 5834 5835 5836 5837 5837 5838 5838 5838 5839 5839 5839 5839 5839 5839 5839 5839 5839 5839 5839 5838 5837 5837 5837 5837 5837 5836 5836 5835 5835 5834 5834 5833 5833 5833 5833 5833 5833 5833 5833 5833 5833 5833 5833 5832 5832 5831 5830 5829 5828 5826 5825 5824 5823 5822 5822 5821 5820 5819 5818 5817 5816 5815 5813 5812 5811 5809 5808 5806 5805 5804 5802 5801 5799 5798 5796 5794
5824 5825 5825 5826 5827 5827 5828 5829 5830 5831 5832 5833 5834 5835 5835 5835 5836 5836 5836 5836 5836 5836 5835 5835 5835 5835 5836 5836 5835 5835 5835 5835 5835 5834 5834 5834 5833 5833 5832 5832 5832 5832 5832 5832 5832 5832 5832 5832 5832 5832 5832 5831 5831 5830 5830 5829 5828 5827 5825 5824 5823 5822 5821 5820 5819 5818 5818 5817 5815 5814 5813 5812 5810 5809 5807 5806 5805 5803 5802 5800 5799 5797 5795 5793 5791
5820 5821 5821 5822 5823 5823 5824 5826 5827 5828 5829 5830 5831 5832 5832 5833 5833 5833 5833 5833 5832 5832 5831 5831 5831 5831 5832 5832 5833 5832 5832 5832 5832 5832 5832 5832 5831 5831 5831 5831 5831 5831 5831 5831 5831 5831 5831 5831 5831 5831 5831 5830 5830 5829 5828 5828 5827 5825 5824 5823 5822 5821 5820 5819 5818 5817 5816 5815 5814 5812 5811 5810 5808 5807 5806 5804 5803 5801 5800 5798 5796 5794 5793 5791 5788
5817 5817 5818 5819 5820 5820 5821 5823 5824 5825 5826 5827 5828 5829 5829 5830 5830 5830 5830 5829 5829 5828 5827 5827 5827 5828 5828 5829 5830 5830 5830 5830 5829 5829 5830 5830 5829 5829 5829 5829 5829 5829 5830 5830 5830 5830 5830 5830 5830 5830 5830 5829 5828 5828 5827 5826 5825 5824 5823 5822 5821 5819 5818 5818 5816 5815 5814 5813 5812 5810 5809 5808 5806 5805 5804 5802 5801 5799 5798 5796 5794 5792 5790 5788 5785
5814 5815 5815 5816 5817 5818 5819 5820 5821 5822 5823 5824 5825 5826 5827 5827 5827 5827 5827 5826 5825 5825 5824 5824 5824 5825 5825 5826 5827 5827 5827 5827 5827 5827 5827 5828 5828 5827 5827 5827 5827 5828 5828 5829 5829 5829 5829 5829 5829 5829 5829 5828 5827 5827 5826 5825 5824 5822 5821 5820 5819 5818 5817 5816 5815 5813 5812 5811 5810 5808 5807 5806 5804 5803 5802 5800 5799 5797 5795 5793 5791 5789 5787 5785 5782
5811 5812 5813 5814 5814 5815 5816 5817 5818 5819 5820 5821 5822 5823 5823 5824 5824 5824 5824 5823 5822 5822 5821 5821 5821 5822 5822 5823 5824 5824 5824 5824 5824 5825 5825 5825 5825 5825 5825 5825 5826 5826 5827 5827 5827 5827 5827 5828 5828 5828 5827 5827 5826 5825 5825 5824 5822 5821 5820 5818 5817 5816 5815 5814 5813 5811 5810 5809 5808 5806 5805 5804 5802 5801 5800 5798 5796 5794 5793 5790 5788 5786 5784 5781 5779
5808 5809 5810 5811 5812 5812 5812 5813 5814 5816 5817 5818 5818 5819 5820 5820 5821 5821 5821 5820 5820 5819 5819 5819 5819 5819 5819 5820 5821 5821 5821 5822 5822 5822 5822 5823 5823 5823 5823 5823 5824 5824 5825 5825 5825 5826 5826 5826 5826 5826 5826 5825 5825 5824 5823 5822 5821 5819 5818 5816 5815 5814 5813 5812 5810 5809 5808 5807 5806 5804 5803 5802 5800 5799 5797 5796 5794 5792 5790 5787 5785 5783 5781 5778 5776
5805 5806 5807 5808 5808 5809 5809 5810 5811 5812 5813 5814 5814 5815 5816 5817 5818 5818 5818 5817 5817 5817 5816 5816 5816 5816 5817 5817 5817 5818 5818 5819 5819 5819 5820 5820 5820 5821 5821 5821 5821 5822 5822 5823 5823 5823 5824 5824 5824 5824 5824 5823 5823 5822 5821 5820 5819 5817 5816 5815 5813 5812 5811 5810 5808 5807 5806 5805 5803 5802 5801 5800 5798 5797 5795 5793 5791 5789 5787 5785 5782 5780 5778 5775 5773
5801 5802 5803 5804 5804 5805 5806 5807 5808 5809 5809 5810 5811 5811 5812 5813 5814 5814 5814 5814 5814 5814 5814 5814 5814 5814 5814 5814 5814 5815 5815 5816 5816 5817 5817 5817 5818 5818 5818 5819 5819 5820 5820 5821 5821 5821 5821 5821 5821 5821 5821 5821 5820 5820 5819 5818 5817 5815 5814 5812 5811 5810 5809 5807 5806 5805 5803 5802 5801 5800 5799 5797 5796 5794 5792 5790 5788 5786 5784 5782 5780 5777 5775 5773 5770
5797 5798 5799 5800 5800 5801 5802 5803 5804 5804 5805 5806 5807 5807 5808 5809 5810 5810 5810 5811 5811 5811 5811 5811 5811 5811 5811 5811 5811 5812 5812 5813 5813 5813 5814 5814 5815 5815 5815 5816 5817 5817 5818 5818 5819 5819 5819 5819 5819 5819 5818 5818 5817 5817 5816 5815 5814 5813 5812 5810 5809 5807 5806 5805 5804 5802 5801 5800 5799 5797 5796 5795 5793 5791 5789 5787 5785 5783 5781 5779 5777 5774 5772 5770 5767